Weather History for EBBL - April, 2013

Change the Weather History Date:

Saturday, April 27, 2013

  Actual Average (WUND) Record (WUND)
Temperature  
Mean Temperature 44 °F -  
Max Temperature 52 °F 61 °F - (-1)
Min Temperature 37 °F 47 °F - (-1)
Degree Days  
Heating Degree Days 20    
Moisture  
Dew Point 37 °F    
Average Humidity 75    
Maximum Humidity 100    
Minimum Humidity 34    
Precipitation  
Precipitation 0.00 in - - ()
Sea Level Pressure  
Sea Level Pressure 29.88 in    
Wind  
Wind Speed 6 mph ()    
Max Wind Speed 13 mph    
Max Gust Speed -    
Visibility 5.8 miles    
Events Rain    
Averages and records for this station are not official NWS values.
T = Trace of Precipitation, MM = Missing Value Source: Averaged Metar Reports

Daily Weather History Graph

Daily Weather History Graph

Search for Another Location

Airport or City:

Trip Planner

Search our weather history database for the weather conditions in past years. The results will help you decide how hot, cold, wet, or windy it might be!

Date:

Astronomy

Apr. 27, 2013 Rise Set
Actual Time 6:18 AM CEST 8:54 PM CEST
Civil Twilight 5:41 AM CEST 9:31 PM CEST
Nautical Twilight 4:54 AM CEST 10:18 PM CEST
Astronomical Twilight 3:57 AM CEST 11:16 PM CEST
Moon 11:18 PM CEST 7:13 AM CEST
Length of Visible Light 15h 49m
Length of Day
14h 35m
Waning Gibbous, 96% of the Moon is Illuminated
Apr 27
Waning Gibbous
May 2
Last Quarter
May 10
New
May 18
First Quarter
May 25
Full

Hourly Weather History & Observations

Time (CEST) Temp. Windchill Dew Point Humidity Pressure Visibility Wind Dir Wind Speed Gust Speed Precip Events Conditions
12:25 AM 42.8 °F 40.1 °F 41.0 °F 93% 29.86 in 4.3 mi NW 4.6 mph - N/A   Mostly Cloudy
1:25 AM 41.0 °F 37.1 °F 41.0 °F 100% 29.83 in 4.3 mi NW 5.8 mph - N/A   Mostly Cloudy
1:28 AM 41.0 °F 37.1 °F 41.0 °F 100% 29.83 in 4.3 mi NW 5.8 mph - N/A   Mostly Cloudy
1:55 AM 41.0 °F 39.0 °F 41.0 °F 100% 29.83 in 4.3 mi Variable 3.5 mph - N/A   Mostly Cloudy
2:00 AM 41 °F - 41 °F 99% 29.86 in 4 mi 2.2 mph - - Rain Light Rain
2:06 AM 41.0 °F 39.0 °F 41.0 °F 100% 29.83 in 4.3 mi Variable 3.5 mph - N/A   Mostly Cloudy
2:11 AM 41.0 °F 39.0 °F 41.0 °F 100% 29.83 in 4.3 mi Variable 3.5 mph - N/A   Mostly Cloudy
2:25 AM 41.0 °F 38.0 °F 41.0 °F 100% 29.83 in 4.3 mi NW 4.6 mph - N/A   Mostly Cloudy
2:55 AM 39.2 °F 35.9 °F 39.2 °F 100% 29.83 in 4.3 mi NW 4.6 mph - N/A   Mostly Cloudy
3:25 AM 39.2 °F 35.9 °F 39.2 °F 100% 29.83 in 4.3 mi NNW 4.6 mph - N/A   Mostly Cloudy
3:55 AM 39.2 °F 35.0 °F 39.2 °F 100% 29.83 in 5.0 mi NW 5.8 mph - N/A   Mostly Cloudy
4:25 AM 39.2 °F 35.9 °F 39.2 °F 100% 29.83 in 5.0 mi NNW 4.6 mph - N/A   Mostly Cloudy
4:55 AM 39.2 °F 35.9 °F 37.4 °F 93% 29.83 in 5.0 mi NNW 4.6 mph - N/A   Mostly Cloudy
5:00 AM 39 °F - 38 °F 97% 29.86 in 5 mi 4.5 mph - -   Clear
5:25 AM 39.2 °F 35.9 °F 37.4 °F 93% 29.83 in 5.0 mi NNW 4.6 mph - N/A   Mostly Cloudy
5:55 AM 39.2 °F 35.9 °F 37.4 °F 93% 29.83 in 5.0 mi NNW 4.6 mph - N/A   Mostly Cloudy
6:25 AM 37.4 °F 34.9 °F 37.4 °F 100% 29.83 in 5.0 mi Variable 3.5 mph - N/A   Mostly Cloudy
6:55 AM 37.4 °F 33.8 °F 37.4 °F 100% 29.86 in 3.7 mi NNW 4.6 mph - N/A   Mostly Cloudy
6:57 AM 37.4 °F 33.8 °F 37.4 °F 100% 29.86 in 3.7 mi NNW 4.6 mph - N/A   Mostly Cloudy
7:25 AM 39.2 °F 35.9 °F 39.2 °F 100% 29.86 in 3.7 mi NNW 4.6 mph - N/A   Mostly Cloudy
8:00 AM 39 °F - 39 °F 98% 29.88 in 4 mi NNW 4.5 mph - -   Mostly Cloudy
8:25 AM 41.0 °F 38.0 °F 39.2 °F 93% 29.86 in 5.0 mi NNW 4.6 mph - N/A   Mostly Cloudy
8:26 AM 41.0 °F 38.0 °F 39.2 °F 93% 29.86 in 5.0 mi NNW 4.6 mph - N/A   Mostly Cloudy
8:55 AM 41.0 °F 38.0 °F 39.2 °F 93% 29.86 in 5.0 mi North 4.6 mph - N/A   Mostly Cloudy
9:24 AM 42.8 °F 39.3 °F 39.2 °F 87% 29.86 in 6.2 mi North 5.8 mph - N/A   Scattered Clouds
9:25 AM 42.8 °F 39.3 °F 41.0 °F 93% 29.86 in 6.2 mi North 5.8 mph - N/A   Scattered Clouds
9:55 AM 42.8 °F 38.6 °F 39.2 °F 87% 29.86 in 6.2 mi North 6.9 mph - N/A   Mostly Cloudy
10:25 AM 46.4 °F 42.9 °F 39.2 °F 76% 29.86 in 6.2 mi North 6.9 mph - N/A   Mostly Cloudy
10:42 AM 44.6 °F 41.4 °F 35.6 °F 71% 29.89 in 6.2 mi North 5.8 mph - N/A   Scattered Clouds
10:55 AM 44.6 °F 40.2 °F 37.4 °F 76% 29.89 in 6.2 mi NNE 8.1 mph - N/A   Mostly Cloudy
11:00 AM 45 °F - 37 °F 64% 29.90 in 9 mi NNE 8.9 mph - -   Partly Cloudy
11:25 AM 48.2 °F - 39.2 °F 71% 29.89 in 6.2 mi North 6.9 mph - N/A   Mostly Cloudy
11:37 AM 48.2 °F - 39.2 °F 71% 29.89 in 6.2 mi NE 8.1 mph - N/A   Mostly Cloudy
11:47 AM 48.2 °F - 35.6 °F 62% 29.89 in 6.2 mi NNE 9.2 mph - N/A   Mostly Cloudy
11:55 AM 48.2 °F - 39.2 °F 71% 29.89 in 6.2 mi NNE 8.1 mph - N/A   Mostly Cloudy
12:25 PM 48.2 °F - 37.4 °F 66% 29.89 in 6.2 mi NNE 11.5 mph - N/A   Mostly Cloudy
12:55 PM 48.2 °F - 33.8 °F 58% 29.89 in 6.2 mi NNE 10.4 mph - N/A   Mostly Cloudy
1:25 PM 50.0 °F - 32.0 °F 50% 29.89 in 6.2 mi NNE 9.2 mph - N/A   Mostly Cloudy
1:55 PM 50.0 °F - 33.8 °F 54% 29.89 in 6.2 mi NNE 9.2 mph - N/A   Mostly Cloudy
2:00 PM 50 °F - 33 °F 40% 29.91 in 9 mi NNE 8.9 mph - -   Partly Cloudy
2:25 PM 50.0 °F - 32.0 °F 50% 29.89 in 6.2 mi NNE 10.4 mph - N/A   Mostly Cloudy
2:55 PM 50.0 °F - 33.8 °F 54% 29.89 in 6.2 mi NNE 9.2 mph - N/A   Mostly Cloudy
3:25 PM 51.8 °F - 32.0 °F 47% 29.89 in 6.2 mi North 10.4 mph - N/A   Mostly Cloudy
3:55 PM 51.8 °F - 30.2 °F 44% 29.89 in 6.2 mi NNE 10.4 mph - N/A   Mostly Cloudy
4:25 PM 51.8 °F - 32.0 °F 47% 29.89 in 6.2 mi NNE 12.7 mph - N/A   Mostly Cloudy
4:55 PM 50.0 °F - 30.2 °F 47% 29.89 in 6.2 mi NNE 11.5 mph - N/A   Mostly Cloudy
5:00 PM 50 °F - 30 °F 34% 29.91 in 9 mi NNE 11.2 mph - -   Partly Cloudy
5:25 PM 51.8 °F - 30.2 °F 44% 29.89 in 6.2 mi North 8.1 mph - N/A   Mostly Cloudy
5:55 PM 51.8 °F - 32.0 °F 47% 29.89 in 6.2 mi NNE 11.5 mph - N/A   Mostly Cloudy
6:25 PM 51.8 °F - 30.2 °F 44% 29.89 in 6.2 mi NNE 10.4 mph - N/A   Mostly Cloudy
6:55 PM 50.0 °F - 32.0 °F 50% 29.89 in 6.2 mi North 8.1 mph - N/A   Mostly Cloudy
7:25 PM 48.2 °F - 33.8 °F 58% 29.89 in 6.2 mi North 9.2 mph - N/A   Mostly Cloudy
7:55 PM 48.2 °F - 35.6 °F 62% 29.89 in 6.2 mi North 11.5 mph - N/A   Mostly Cloudy
8:00 PM 48 °F - 35 °F 49% 29.92 in 9 mi North 11.2 mph - -   Mostly Cloudy
8:25 PM 46.4 °F 41.9 °F 35.6 °F 66% 29.92 in 6.2 mi North 9.2 mph - N/A   Mostly Cloudy
8:55 PM 46.4 °F 42.9 °F 35.6 °F 66% 29.92 in 6.2 mi North 6.9 mph - N/A   Mostly Cloudy
9:25 PM 46.4 °F 43.5 °F 35.6 °F 66% 29.92 in 6.2 mi North 5.8 mph - N/A   Mostly Cloudy
9:55 PM 46.4 °F 44.3 °F 37.4 °F 71% 29.95 in 6.2 mi North 4.6 mph - N/A   Mostly Cloudy
10:25 PM 44.6 °F 42.2 °F 37.4 °F 76% 29.95 in 6.2 mi North 4.6 mph - N/A   Mostly Cloudy
10:55 PM 44.6 °F 42.2 °F 35.6 °F 71% 29.95 in 6.2 mi North 4.6 mph - N/A   Mostly Cloudy
11:00 PM 44 °F - 36 °F 66% 29.97 in 9 mi 4.5 mph - -   Mostly Cloudy
11:25 PM 44.6 °F 41.4 °F 35.6 °F 71% 29.98 in 6.2 mi North 5.8 mph - N/A   Mostly Cloudy
11:55 PM 42.8 °F 37.0 °F 33.8 °F 70% 29.98 in 6.2 mi NNE 10.4 mph - N/A   Mostly Cloudy